Home   Weather   Kokomo   Past weeks
Flag for USA

Past Weather in Kokomo, Indiana, USA — Yesterday and Last 2 Weeks

Now
72 °F

Overcast.


Feels Like: 72 °F
Forecast: 80 / 62 °F
Wind: 9 mph from East

Location: Kokomo Weather Reporting System

Current Time: Sep 17, 2019 at 12:58:37 pm

Latest Report: Sep 17, 2019 at 12:08 pm


Visibility: 9 mi

Pressure: 30.20 "Hg

Humidity: 78%

Dew Point: 64 °F

Location of KokomoLocation

Past Weather in Kokomo — Graph

°F

Kokomo Temperature Yesterday

Maximum temperature yesterday: 86 °F (at 2:56 pm)
Minimum temperature yesterday: 60 °F (at 5:56 am)
Average temperature yesterday: 72 °F

High & Low Weather Summary for the Past Weeks

 TemperatureHumidityPressure
High89 °F (Sep 12, 2:56 pm)100% (Sep 2, 11:56 pm)30.28 "Hg (Sep 2, 11:56 pm)
Low48 °F (Sep 5, 7:02 am)46% (Sep 13, 5:56 pm)29.86 "Hg (Sep 3, 8:56 pm)
Average69 °F84%30.10 "Hg
* Reported Sep 2 11:56 am — Sep 17 11:36 am, Kokomo. Weather by CustomWeather, © 2019

Note: Actual official high and low records may vary slightly from our data, if they occured in-between our weather recording intervals... More about our weather records

Advertising

Kokomo Weather History for the Previous 24 Hours

Scroll right to see more
 ConditionsComfort  
Time TempWeatherWind HumidityBarometerVisibility
11:36 am
Tue, Sep 17
70 °FFog.7 mph88%30.20 "Hg5 mi
10:56 am68 °FFog.8 mph90%30.19 "Hg4 mi
10:06 am66 °FFog.8 mph100%30.19 "Hg3 mi
8:56 am65 °FFog.9 mph100%30.17 "Hg2 mi
8:35 am64 °FFog.10 mph100%30.18 "Hg1 mi
7:56 am60 °FFog.5 mph100%30.16 "Hg1 mi
7:43 am61 °FFog.3 mph100%30.17 "Hg1 mi
7:28 am61 °FFog.6 mph100%30.17 "Hg2 mi
6:56 am62 °FFog.6 mph100%30.15 "Hg4 mi
5:56 am63 °FFog.5 mph100%30.14 "Hg6 mi
4:56 am61 °FFog.5 mph100%30.12 "Hg6 mi
4:19 am61 °FFog.3 mph100%30.13 "Hg3 mi
11:56 pm
Mon, Sep 16
67 °FClear.7 mph93%30.10 "Hg10 mi
10:56 pm68 °FClear.7 mph93%30.10 "Hg10 mi
9:56 pm70 °FClear.7 mph87%30.09 "Hg10 mi
8:56 pm73 °FClear.8 mph81%30.08 "Hg10 mi
7:56 pm76 °FClear.7 mph72%30.06 "Hg10 mi
6:56 pm82 °FSunny.5 mph60%30.06 "Hg10 mi
5:56 pm83 °FSunny.6 mph59%30.06 "Hg10 mi
4:56 pm85 °FSunny.10 mph59%30.06 "Hg10 mi
3:56 pm84 °FSunny.5 mph59%30.06 "Hg10 mi
2:56 pm86 °FPassing clouds.9 mph49%30.07 "Hg10 mi
1:56 pm85 °FPartly sunny.3 mph59%30.09 "Hg10 mi
12:56 pm83 °FBroken clouds.8 mph65%30.10 "Hg9 mi
Weather by CustomWeather, © 2019

See weather overview